星链-30386 (STARLINK-30386 )

导读

STARLINK-30386是美国SpaceX公司星链(Starlink)低轨卫星互联网星座的一员,于2023年9月9日发射升空。星链计划旨在为全球偏远地区提供低延迟高速宽带互联网服务,STARLINK-30386属于星座组网卫星,助力实现全球覆盖,目前已在轨运行,单颗星链卫星设计寿命约5-7年,退役后会主动离轨坠入大气层焚毁。

Basic Information
目录编号:
57816
目录名称:
STARLINK-30386
国际标识:
2023-138J
轨道中心:
EARTH
卫星名称:
星链-30386
卫星全名:
星链-30386 (STARLINK-30386 )
卫星状态:
在轨 (已飞行1013 天)
发射日期:
2023-09-09 UTC
国别 :
美国 (US)
星等 :
--
Orbit Information
数据来源 国际轨道数据
星历时间: 2026-06-18T07:32:07+0800
13小时前
查看轨道信息
半长轴: 6861.203km
偏心率: 0.0000779
轨道倾角: 43.001°
近地点辐角 251.021°
升交点赤经 28.040°
平近点角 109.056°
近地点: 482.531km
远地点: 483.601km
周期: 94.267分钟
每日圈数: 15.275746
Detailed Information
固有亮度:
5
最大亮度:
0.3
卫星平台:
Starlink v2.0 mini
覆盖范围:
全球
运营商:
太空探索技术公司
运营商所在国:
美国
制造商(研发单位):
太空探索技术公司
制造商所在国:
美国
使用方式:
暂无
Satellite Introduction
星链(Starlink)计划是由太空探索技术公司(SpaceX)提出的一个巨型低轨卫星互联网星座项目,计划在2019年至2024年间在太空搭建由约1.2万颗卫星组成的“星链”网络,其中1584颗将部署在地球上空550千米处的近地轨道,并从2020年开始工作。该卫星仍在工作。
2D Orbit Map
3D Orbit Map
Orbit Altitude Analysis Chart
Orbit Inclination Analysis Chart
Orbit Comprehensive Analysis Chart
View Comprehensive Chart